Regional Weather Roundup
Issued by NWS Goodland, KS

Home | Current Version | Previous Version | Graphics & Text | Print | Product List | Glossary On
Versions: 1 2 3 4 5 6 7 8 9 10 11 12 13 14 15 16 17 18 19 20 21 22 23 24 25 26 27 28 29 30 31 32 33 34 35 36 37 38 39 40 41 42 43 44 45 46 47 48 49 50
000
ASUS43 KGLD 220108
RWRGLD

GOODLAND FORECAST AREA HOURLY WEATHER ROUNDUP
NATIONAL WEATHER SERVICE GOODLAND KS
700 PM MDT TUE OCT 21 2014

...OFFICIAL OBSERVATIONS...

CITY           SKY/WX    TMP DP  RH WIND       PRES   REMARKS
GOODLAND KS    CLEAR     66  47  50 S13       29.93S
HILL CITY KS   CLEAR     69  55  60 SE9       29.95S
IMPERIAL NEB   CLEAR     69  50  50 SE13      29.89R
MCCOOK NEB     CLEAR     69  54  58 SE10      29.91S
AKRON CO       PTCLDY    64  40  41 S10       29.90S
BURLINGTON CO  CLEAR     66  41  40 S13       29.93S
LIMON CO       PTCLDY    57  38  48 SE8       29.95R
$$

...UNOFFICIAL OBSERVATIONS...

CITY           SKY/WX    TMP DP  RH WIND       PRES   REMARKS
COLBY KS       CLEAR     66  54  63 SE12      29.95S
GOVE KS          N/A     67  32  27 MISG        N/A
NORTON KS      CLEAR     68  52  56 SE8       29.94R
SHARON SPRINGS   N/A     66  48  52 S12         N/A
TRENTON NEB      N/A     69  32  25 S16         N/A
KIT CARSON CO    N/A     66  44  45 N10         N/A
YUMA CO          N/A     62  39  43 CALM        N/A
$$



USA.gov is the U.S. government's official web portal to all federal, state and local government web resources and services.